Berlin, MD

4:44 PM EST on December 09, 2016 (GMT -0500)
Ocean City Municipal

Weather History for KOXB - December, 2012

Change the Weather History Date:

Friday, December 7, 2012

  Actual Average (KSBY) Record (KSBY)
Temperature  
Mean Temperature 41 °F -  
Max Temperature 54 °F 52 °F 77 °F (1998)
Min Temperature 28 °F 32 °F 10 °F (2007)
Degree Days  
Heating Degree Days 24    
Moisture  
Dew Point 44 °F    
Average Humidity 93    
Maximum Humidity 100    
Minimum Humidity 83    
Precipitation  
Precipitation 0.02 in - - ()
Sea Level Pressure  
Sea Level Pressure 30.13 in    
Wind  
Wind Speed 2 mph (SSW)    
Max Wind Speed 6 mph    
Max Gust Speed -    
Visibility 10 miles    
Events Rain    
Averages and records for this station are not official NWS values.
T = Trace of Precipitation, MM = Missing Value Source: NWS Daily Summary

Daily Weather History Graph

Daily Weather History Graph

Search for Another Location

Airport or City:

Trip Planner

Search our weather history database for the weather conditions in past years. The results will help you decide how hot, cold, wet, or windy it might be!

Date:

Astronomy

Dec. 07, 2012 Rise Set
Actual Time 7:04 AM EST 4:39 PM EST
Civil Twilight 6:34 AM EST 5:09 PM EST
Nautical Twilight 6:01 AM EST 5:42 PM EST
Astronomical Twilight 5:29 AM EST 6:14 PM EST
Moon 12:25 AM EST (12/7) 12:31 PM EST (12/7)
Length of Visible Light 10h 34m
Length of Day
9h 35m
Last Quarter, 39% of the Moon is Illuminated
Dec 7
Last Quarter
Dec 13
New
Dec 20
First Quarter
Dec 28
Full
Jan 4
Last Quarter

Hourly Weather History & Observations

Time (EST) Temp. Windchill Dew Point Humidity Pressure Visibility Wind Dir Wind Speed Gust Speed Precip Events Conditions
12:53 AM 30.9 °F 26.2 °F 30.0 °F 96% 30.28 in 10.0 mi NNW 4.6 mph - N/A   Clear
1:53 AM 30.0 °F 26.5 °F 28.0 °F 92% 30.26 in 10.0 mi North 3.5 mph - N/A   Clear
2:53 AM 28.0 °F - 28.0 °F 100% 30.23 in 10.0 mi Calm Calm - N/A   Clear
3:53 AM 30.0 °F - 28.9 °F 96% 30.22 in 10.0 mi Calm Calm - N/A   Clear
4:53 AM 32.0 °F - 32.0 °F 100% 30.21 in 10.0 mi Calm Calm - N/A   Overcast
5:53 AM 37.0 °F - 35.1 °F 93% 30.21 in 10.0 mi Calm Calm - N/A   Overcast
6:53 AM 39.0 °F - 37.0 °F 93% 30.20 in 10.0 mi Calm Calm - N/A   Overcast
7:53 AM 42.1 °F - 41.0 °F 96% 30.21 in 10.0 mi Calm Calm - 0.01 in   Overcast
8:53 AM 48.0 °F - 46.0 °F 93% 30.20 in 10.0 mi Calm Calm - 0.00 in Rain Light Rain
9:53 AM 50.0 °F - 46.0 °F 86% 30.20 in 10.0 mi Calm Calm - 0.00 in   Overcast
10:53 AM 51.1 °F - 46.0 °F 83% 30.18 in 10.0 mi SSE 4.6 mph - N/A   Overcast
11:53 AM 52.0 °F - 46.9 °F 83% 30.15 in 10.0 mi SSW 5.8 mph - N/A   Overcast
12:53 PM 52.0 °F - 46.9 °F 83% 30.13 in 10.0 mi Calm Calm - N/A   Overcast
1:53 PM 53.1 °F - 48.0 °F 83% 30.10 in 10.0 mi Calm Calm - N/A   Overcast
2:53 PM 53.1 °F - 48.0 °F 83% 30.09 in 10.0 mi SSW 3.5 mph - N/A   Overcast
3:53 PM 52.0 °F - 48.0 °F 86% 30.08 in 10.0 mi SSE 3.5 mph - N/A   Overcast
4:53 PM 48.9 °F - 48.0 °F 97% 30.07 in 10.0 mi Calm Calm - N/A   Mostly Cloudy
5:53 PM 48.9 °F - 48.0 °F 97% 30.07 in 10.0 mi Calm Calm - N/A   Mostly Cloudy
6:53 PM 50.0 °F - 50.0 °F 100% 30.07 in 10.0 mi Calm Calm - 0.00 in   Overcast
8:53 PM 52.0 °F - 52.0 °F 100% 30.05 in 5.0 mi Calm Calm - 0.00 in   Overcast
9:53 PM 51.1 °F - 51.1 °F 100% 30.02 in 4.0 mi Calm Calm - 0.01 in   Overcast
10:53 PM 54.0 °F - 53.1 °F 97% 30.01 in 10.0 mi Variable 4.6 mph - N/A   Overcast
11:21 PM 53.6 °F - 53.6 °F 100% 29.99 in 10.0 mi Variable 4.6 mph - N/A   Overcast
11:45 PM 53.6 °F - 51.8 °F 94% 29.98 in 10.0 mi Variable 5.8 mph - 0.00 in   Overcast
11:53 PM 54.0 °F - 52.0 °F 93% 29.98 in 10.0 mi South 5.8 mph - 0.00 in Rain Light Rain